RUBIN 9.1/RUBIN 9.2/PSLV

Satellite information

Favourite Embed

Satellite Type and Status

PAYLOADIN ORBIT

Key statistics

Satellite RUBIN 9.1/RUBIN 9.2/PSLV at a glance.

Uptime

5706

Days in orbit

Revolutions

≈ 14.4

Per day

Orbit

SSO

Sun Synchronous Orbit

Inclination

98.3

Latest

Satellite identification and parameters

Extended collection of information and parameters for RUBIN 9.1/RUBIN 9.2/PSLV.

Object identification

Identified? True

Debris? False

Object name: RUBIN 9.1/RUBIN 9.2/PSLV

International designator: 2009-051F

Object number (NORAD): 35936

Object ID (CCSDS): 35936

Country: GERMANY (GER)

Current information (Y/N): Y

RCS size: LARGE

Orbital parameters

Period: 99.773 minutes

Inclination: 98.2919 deg

SMA: 7125.841 km

Apoapsis: 785.532 km

Periapsis: 709.88 km

RAAN: 56.2445 deg

Eccentricy: 0.0053083

Argument of periapsis: 206.8124 deg

Mean anomaly: 153.0321 deg

Mean motion: 14.43273316 rev/day

Mean motion (dot): 0.00000275 rev/day2

B* drag term: 0.000092954 1/REarth

Two-line elements (TLE)

Creation date: May 8, 2025, 3:01 a.m.

Reference frame: TEME

Reference center: EARTH

Epoch: May 7, 2025, 6:50 p.m. UTC

TLE line 0: 0 RUBIN 9.1/RUBIN 9.2/PSLV

TLE line 1: 1 35936U 09051F 25127.78540356 .00000275 00000-0 92954-4 0 9993

TLE line 2: 2 35936 98.2919 56.2445 0053083 206.8124 153.0321 14.43273316822050

Live tracking on map

Real-time ground track for satellite RUBIN 9.1/RUBIN 9.2/PSLV.

In-orbit conjunctions

A list of the most updated potential collisions computed for object RUBIN 9.1/RUBIN 9.2/PSLV.

Target Orbit TCA Probability of collision Miss distance Type
NOAA 16 DEB SSO 2025-05-05 08:47:48 0.0001245738 522.0 (m) DEBRIS
FENGYUN 1C DEB SSO 2024-10-26 05:44:10 0.0001462246 726.0 (m) DEBRIS
NOAA 16 DEB SSO 2024-10-05 20:51:30 0.0002075083 254.0 (m) DEBRIS
FENGYUN 1C DEB SSO 2024-09-11 05:16:21 0.0001168233 385.0 (m) DEBRIS

Associated space launch

Oceansat-2 is an earth observation and oceanography satellite operated by ISRO.

RUBIN 9.1/RUBIN 9.2/PSLV was lifted into orbit during the mission ‘PSLV | Oceansat-2’, on board a PSLV space rocket.

The launch took place on Sept. 23, 2009, 6:21 a.m. from Satish Dhawan Space Centre First Launch Pad.

For more information about the launch, click the button.

Launch to space PSLV | Oceansat-2
PSLV | Oceansat-2

Agency: N/A

Status: Launch Successful

Launch date: Sept. 23, 2009, 6:21 a.m. UTC

Rocket: PSLV

Launch pad: Satish Dhawan Space Centre First Launch Pad

Location: Satish Dhawan Space Centre, India

...

Latest news about this satellite

There are no fresh news available about this satellite. Check back as we update our databases every day.


Newsletter sign-up

Weekly statistics, charts and insights to help you stay on top of the space industry.